iso_date,epoch_date,Year,Hour,Min,DOY,POS_DOY,Lat,Lon,BP,Ts,Ta,has_bp,has_ts,has_ta,BuoyID,Buoy_Type,Buoy_Owner,Logistics,Hemisphere
2018-08-10T19:00:28Z,1533927629,2018,19,0,222.792,222.792,-49.549,-88.386,982.6,6.5,-999.0,yes,yes,no,300234063890710,BD2GI,AOML,OGS_EXPLORA,South
2018-08-10T19:59:31Z,1533931171,2018,20,0,222.833,222.833,-49.567,-88.38,981.1,6.47,-999.0,yes,yes,no,300234063890710,BD2GI,AOML,OGS_EXPLORA,South
2018-08-10T21:00:00Z,1533934800,2018,21,0,222.875,222.875,-49.588,-88.377,980.0,6.4,-999.0,yes,yes,no,300234063890710,BD2GI,AOML,OGS_EXPLORA,South
2018-08-10T22:00:28Z,1533938429,2018,22,0,222.917,222.917,-49.607,-88.375,978.7,6.37,-999.0,yes,yes,no,300234063890710,BD2GI,AOML,OGS_EXPLORA,South
2018-08-10T22:59:31Z,1533941971,2018,23,0,222.958,222.958,-49.621,-88.379,976.8,6.37,-999.0,yes,yes,no,300234063890710,BD2GI,AOML,OGS_EXPLORA,South
2018-08-11T00:00:00Z,1533945600,2018,0,0,223.0,223.0,-49.634,-88.379,976.0,6.37,-999.0,yes,yes,no,300234063890710,BD2GI,AOML,OGS_EXPLORA,South
2018-08-11T01:00:28Z,1533949229,2018,1,0,223.042,223.042,-49.643,-88.362,979.1,6.37,-999.0,yes,yes,no,300234063890710,BD2GI,AOML,OGS_EXPLORA,South
2018-08-11T01:59:31Z,1533952771,2018,2,0,223.083,223.083,-49.646,-88.325,982.8,6.37,-999.0,yes,yes,no,300234063890710,BD2GI,AOML,OGS_EXPLORA,South
2018-08-11T03:00:00Z,1533956400,2018,3,0,223.125,223.125,-49.645,-88.293,985.7,6.33,-999.0,yes,yes,no,300234063890710,BD2GI,AOML,OGS_EXPLORA,South
2018-08-11T04:00:28Z,1533960029,2018,4,0,223.167,223.167,-49.646,-88.271,986.9,6.26,-999.0,yes,yes,no,300234063890710,BD2GI,AOML,OGS_EXPLORA,South
2018-08-11T04:59:31Z,1533963571,2018,5,0,223.208,223.208,-49.65,-88.256,988.4,6.23,-999.0,yes,yes,no,300234063890710,BD2GI,AOML,OGS_EXPLORA,South
2018-08-11T06:00:00Z,1533967200,2018,6,0,223.25,223.25,-49.655,-88.244,989.7,6.19,-999.0,yes,yes,no,300234063890710,BD2GI,AOML,OGS_EXPLORA,South
2018-08-11T07:00:28Z,1533970829,2018,7,0,223.292,223.292,-49.663,-88.235,990.4,6.23,-999.0,yes,yes,no,300234063890710,BD2GI,AOML,OGS_EXPLORA,South
2018-08-11T07:59:31Z,1533974371,2018,8,0,223.333,223.333,-49.672,-88.227,990.7,6.23,-999.0,yes,yes,no,300234063890710,BD2GI,AOML,OGS_EXPLORA,South
2018-08-11T09:00:00Z,1533978000,2018,9,0,223.375,223.375,-49.681,-88.22,991.0,6.26,-999.0,yes,yes,no,300234063890710,BD2GI,AOML,OGS_EXPLORA,South
2018-08-11T10:00:28Z,1533981629,2018,10,0,223.417,223.417,-49.69,-88.214,991.3,6.26,-999.0,yes,yes,no,300234063890710,BD2GI,AOML,OGS_EXPLORA,South
2018-08-11T10:59:31Z,1533985171,2018,11,0,223.458,223.458,-49.699,-88.209,991.3,6.26,-999.0,yes,yes,no,300234063890710,BD2GI,AOML,OGS_EXPLORA,South
2018-08-11T12:00:00Z,1533988800,2018,12,0,223.5,223.5,-49.708,-88.199,991.8,6.23,-999.0,yes,yes,no,300234063890710,BD2GI,AOML,OGS_EXPLORA,South
2018-08-11T13:00:28Z,1533992429,2018,13,0,223.542,223.542,-49.716,-88.19,991.9,6.23,-999.0,yes,yes,no,300234063890710,BD2GI,AOML,OGS_EXPLORA,South
2018-08-11T13:59:31Z,1533995971,2018,14,0,223.583,223.583,-49.726,-88.181,992.1,6.23,-999.0,yes,yes,no,300234063890710,BD2GI,AOML,OGS_EXPLORA,South
2018-08-11T15:00:00Z,1533999600,2018,15,0,223.625,223.625,-49.737,-88.174,991.9,6.23,-999.0,yes,yes,no,300234063890710,BD2GI,AOML,OGS_EXPLORA,South
2018-08-11T16:00:28Z,1534003229,2018,16,0,223.667,223.667,-49.749,-88.167,991.8,6.23,-999.0,yes,yes,no,300234063890710,BD2GI,AOML,OGS_EXPLORA,South
2018-08-11T16:59:31Z,1534006771,2018,17,0,223.708,223.708,-49.761,-88.16,991.4,6.26,-999.0,yes,yes,no,300234063890710,BD2GI,AOML,OGS_EXPLORA,South
2018-08-11T18:00:00Z,1534010400,2018,18,0,223.75,223.75,-49.775,-88.153,990.8,6.23,-999.0,yes,yes,no,300234063890710,BD2GI,AOML,OGS_EXPLORA,South
2018-08-11T19:00:28Z,1534014029,2018,19,0,223.792,223.792,-49.789,-88.144,990.2,6.19,-999.0,yes,yes,no,300234063890710,BD2GI,AOML,OGS_EXPLORA,South
2018-08-11T19:59:31Z,1534017571,2018,20,0,223.833,223.833,-49.801,-88.134,989.9,6.16,-999.0,yes,yes,no,300234063890710,BD2GI,AOML,OGS_EXPLORA,South
2018-08-11T21:00:00Z,1534021200,2018,21,0,223.875,223.875,-49.814,-88.124,989.4,6.13,-999.0,yes,yes,no,300234063890710,BD2GI,AOML,OGS_EXPLORA,South
2018-08-11T22:00:28Z,1534024829,2018,22,0,223.917,223.917,-49.826,-88.116,989.4,6.09,-999.0,yes,yes,no,300234063890710,BD2GI,AOML,OGS_EXPLORA,South
2018-08-11T22:59:31Z,1534028371,2018,23,0,223.958,223.958,-49.837,-88.11,988.8,6.09,-999.0,yes,yes,no,300234063890710,BD2GI,AOML,OGS_EXPLORA,South
2018-08-12T00:00:00Z,1534032000,2018,0,0,224.0,224.0,-49.847,-88.106,988.5,6.06,-999.0,yes,yes,no,300234063890710,BD2GI,AOML,OGS_EXPLORA,South
2018-08-12T01:00:28Z,1534035629,2018,1,0,224.042,224.042,-49.857,-88.1,987.9,6.06,-999.0,yes,yes,no,300234063890710,BD2GI,AOML,OGS_EXPLORA,South
2018-08-12T01:59:31Z,1534039171,2018,2,0,224.083,224.083,-49.868,-88.097,986.9,6.06,-999.0,yes,yes,no,300234063890710,BD2GI,AOML,OGS_EXPLORA,South
2018-08-12T03:00:00Z,1534042800,2018,3,0,224.125,224.125,-49.881,-88.097,985.9,6.06,-999.0,yes,yes,no,300234063890710,BD2GI,AOML,OGS_EXPLORA,South
2018-08-12T04:00:28Z,1534046429,2018,4,0,224.167,224.167,-49.895,-88.101,985.2,6.06,-999.0,yes,yes,no,300234063890710,BD2GI,AOML,OGS_EXPLORA,South
2018-08-12T04:59:31Z,1534049971,2018,5,0,224.208,224.208,-49.909,-88.099,984.9,6.13,-999.0,yes,yes,no,300234063890710,BD2GI,AOML,OGS_EXPLORA,South
2018-08-12T06:00:00Z,1534053600,2018,6,0,224.25,224.25,-49.914,-88.092,986.2,6.13,-999.0,yes,yes,no,300234063890710,BD2GI,AOML,OGS_EXPLORA,South
2018-08-12T07:00:28Z,1534057229,2018,7,0,224.292,224.292,-49.911,-88.081,987.5,6.13,-999.0,yes,yes,no,300234063890710,BD2GI,AOML,OGS_EXPLORA,South
2018-08-12T07:59:31Z,1534060771,2018,8,0,224.333,224.333,-49.901,-88.065,988.7,6.13,-999.0,yes,yes,no,300234063890710,BD2GI,AOML,OGS_EXPLORA,South
2018-08-12T09:00:00Z,1534064400,2018,9,0,224.375,224.375,-49.892,-88.061,989.4,6.13,-999.0,yes,yes,no,300234063890710,BD2GI,AOML,OGS_EXPLORA,South
2018-08-12T10:00:28Z,1534068029,2018,10,0,224.417,224.417,-49.881,-88.054,990.7,6.09,-999.0,yes,yes,no,300234063890710,BD2GI,AOML,OGS_EXPLORA,South
2018-08-12T10:59:31Z,1534071571,2018,11,0,224.458,224.458,-49.871,-88.05,991.6,6.06,-999.0,yes,yes,no,300234063890710,BD2GI,AOML,OGS_EXPLORA,South
2018-08-12T12:00:00Z,1534075200,2018,12,0,224.5,224.5,-49.863,-88.046,992.8,6.02,-999.0,yes,yes,no,300234063890710,BD2GI,AOML,OGS_EXPLORA,South
2018-08-12T13:00:28Z,1534078829,2018,13,0,224.542,224.542,-49.856,-88.041,993.6,6.02,-999.0,yes,yes,no,300234063890710,BD2GI,AOML,OGS_EXPLORA,South
2018-08-12T13:59:31Z,1534082371,2018,14,0,224.583,224.583,-49.853,-88.036,994.5,6.02,-999.0,yes,yes,no,300234063890710,BD2GI,AOML,OGS_EXPLORA,South
2018-08-12T15:00:00Z,1534086000,2018,15,0,224.625,224.625,-49.852,-88.029,995.3,6.02,-999.0,yes,yes,no,300234063890710,BD2GI,AOML,OGS_EXPLORA,South
2018-08-12T16:00:28Z,1534089629,2018,16,0,224.667,224.667,-49.854,-88.019,995.7,6.02,-999.0,yes,yes,no,300234063890710,BD2GI,AOML,OGS_EXPLORA,South
2018-08-12T16:59:31Z,1534093171,2018,17,0,224.708,224.708,-49.858,-88.008,996.4,6.02,-999.0,yes,yes,no,300234063890710,BD2GI,AOML,OGS_EXPLORA,South
2018-08-12T18:00:00Z,1534096800,2018,18,0,224.75,224.75,-49.862,-87.994,996.8,6.02,-999.0,yes,yes,no,300234063890710,BD2GI,AOML,OGS_EXPLORA,South
2018-08-12T19:00:28Z,1534100429,2018,19,0,224.792,224.792,-49.866,-87.98,996.9,6.02,-999.0,yes,yes,no,300234063890710,BD2GI,AOML,OGS_EXPLORA,South
2018-08-12T19:59:31Z,1534103971,2018,20,0,224.833,224.833,-49.869,-87.963,997.3,6.06,-999.0,yes,yes,no,300234063890710,BD2GI,AOML,OGS_EXPLORA,South
2018-08-12T21:00:00Z,1534107600,2018,21,0,224.875,224.875,-49.873,-87.944,997.8,6.06,-999.0,yes,yes,no,300234063890710,BD2GI,AOML,OGS_EXPLORA,South
2018-08-12T22:00:28Z,1534111229,2018,22,0,224.917,224.917,-49.875,-87.925,998.2,6.06,-999.0,yes,yes,no,300234063890710,BD2GI,AOML,OGS_EXPLORA,South
2018-08-12T22:59:31Z,1534114771,2018,23,0,224.958,224.958,-49.878,-87.904,998.5,6.09,-999.0,yes,yes,no,300234063890710,BD2GI,AOML,OGS_EXPLORA,South
2018-08-13T00:00:00Z,1534118400,2018,0,0,225.0,225.0,-49.879,-87.884,998.9,6.09,-999.0,yes,yes,no,300234063890710,BD2GI,AOML,OGS_EXPLORA,South
2018-08-13T01:00:28Z,1534122029,2018,1,0,225.042,225.042,-49.879,-87.861,999.6,6.09,-999.0,yes,yes,no,300234063890710,BD2GI,AOML,OGS_EXPLORA,South
2018-08-13T01:59:31Z,1534125571,2018,2,0,225.083,225.083,-49.878,-87.841,1000.0,6.09,-999.0,yes,yes,no,300234063890710,BD2GI,AOML,OGS_EXPLORA,South
2018-08-13T03:00:00Z,1534129200,2018,3,0,225.125,225.125,-49.874,-87.82,1000.3,6.06,-999.0,yes,yes,no,300234063890710,BD2GI,AOML,OGS_EXPLORA,South
2018-08-13T04:00:28Z,1534132829,2018,4,0,225.167,225.167,-49.874,-87.803,1001.1,6.06,-999.0,yes,yes,no,300234063890710,BD2GI,AOML,OGS_EXPLORA,South
2018-08-13T04:59:31Z,1534136371,2018,5,0,225.208,225.208,-49.87,-87.789,1001.5,6.06,-999.0,yes,yes,no,300234063890710,BD2GI,AOML,OGS_EXPLORA,South
2018-08-13T06:00:00Z,1534140000,2018,6,0,225.25,225.25,-49.866,-87.777,1002.2,6.06,-999.0,yes,yes,no,300234063890710,BD2GI,AOML,OGS_EXPLORA,South
2018-08-13T07:00:28Z,1534143629,2018,7,0,225.292,225.292,-49.865,-87.766,1002.7,6.02,-999.0,yes,yes,no,300234063890710,BD2GI,AOML,OGS_EXPLORA,South
2018-08-13T07:59:31Z,1534147171,2018,8,0,225.333,225.333,-49.862,-87.755,1003.2,6.02,-999.0,yes,yes,no,300234063890710,BD2GI,AOML,OGS_EXPLORA,South
2018-08-13T09:00:00Z,1534150800,2018,9,0,225.375,225.375,-49.862,-87.746,1003.2,6.02,-999.0,yes,yes,no,300234063890710,BD2GI,AOML,OGS_EXPLORA,South
2018-08-13T10:00:28Z,1534154429,2018,10,0,225.417,225.417,-49.865,-87.737,1003.5,6.02,-999.0,yes,yes,no,300234063890710,BD2GI,AOML,OGS_EXPLORA,South
2018-08-13T10:59:31Z,1534157971,2018,11,0,225.458,225.458,-49.87,-87.724,1003.6,6.02,-999.0,yes,yes,no,300234063890710,BD2GI,AOML,OGS_EXPLORA,South
2018-08-13T12:00:00Z,1534161600,2018,12,0,225.5,225.5,-49.875,-87.709,1003.7,6.02,-999.0,yes,yes,no,300234063890710,BD2GI,AOML,OGS_EXPLORA,South
2018-08-13T13:00:28Z,1534165229,2018,13,0,225.542,225.542,-49.88,-87.691,1004.0,6.06,-999.0,yes,yes,no,300234063890710,BD2GI,AOML,OGS_EXPLORA,South
2018-08-13T13:59:31Z,1534168771,2018,14,0,225.583,225.583,-49.885,-87.671,1004.0,6.06,-999.0,yes,yes,no,300234063890710,BD2GI,AOML,OGS_EXPLORA,South
2018-08-13T15:00:00Z,1534172400,2018,15,0,225.625,225.625,-49.89,-87.649,1003.7,6.06,-999.0,yes,yes,no,300234063890710,BD2GI,AOML,OGS_EXPLORA,South
2018-08-13T16:00:28Z,1534176029,2018,16,0,225.667,225.667,-49.894,-87.627,1003.2,6.06,-999.0,yes,yes,no,300234063890710,BD2GI,AOML,OGS_EXPLORA,South
2018-08-13T16:59:31Z,1534179571,2018,17,0,225.708,225.708,-49.9,-87.604,1002.9,6.02,-999.0,yes,yes,no,300234063890710,BD2GI,AOML,OGS_EXPLORA,South
2018-08-13T18:00:00Z,1534183200,2018,18,0,225.75,225.75,-49.905,-87.58,1001.9,5.96,-999.0,yes,yes,no,300234063890710,BD2GI,AOML,OGS_EXPLORA,South
2018-08-13T19:00:28Z,1534186829,2018,19,0,225.792,225.792,-49.909,-87.563,1000.8,5.85,-999.0,yes,yes,no,300234063890710,BD2GI,AOML,OGS_EXPLORA,South
2018-08-13T19:59:31Z,1534190371,2018,20,0,225.833,225.833,-49.914,-87.548,999.3,5.85,-999.0,yes,yes,no,300234063890710,BD2GI,AOML,OGS_EXPLORA,South
2018-08-13T21:00:00Z,1534194000,2018,21,0,225.875,225.875,-49.917,-87.538,997.7,5.85,-999.0,yes,yes,no,300234063890710,BD2GI,AOML,OGS_EXPLORA,South
2018-08-13T22:00:28Z,1534197629,2018,22,0,225.917,225.917,-49.92,-87.533,995.5,5.85,-999.0,yes,yes,no,300234063890710,BD2GI,AOML,OGS_EXPLORA,South
2018-08-13T22:59:31Z,1534201171,2018,23,0,225.958,225.958,-49.925,-87.529,993.5,5.85,-999.0,yes,yes,no,300234063890710,BD2GI,AOML,OGS_EXPLORA,South
2018-08-14T00:00:00Z,1534204800,2018,0,0,226.0,226.0,-49.929,-87.525,991.1,5.85,-999.0,yes,yes,no,300234063890710,BD2GI,AOML,OGS_EXPLORA,South
2018-08-14T01:00:28Z,1534208429,2018,1,0,226.042,226.042,-49.93,-87.527,989.0,5.85,-999.0,yes,yes,no,300234063890710,BD2GI,AOML,OGS_EXPLORA,South
2018-08-14T01:59:31Z,1534211971,2018,2,0,226.083,226.083,-49.923,-87.526,989.6,5.89,-999.0,yes,yes,no,300234063890710,BD2GI,AOML,OGS_EXPLORA,South
2018-08-14T03:00:00Z,1534215600,2018,3,0,226.125,226.125,-49.913,-87.517,990.5,5.89,-999.0,yes,yes,no,300234063890710,BD2GI,AOML,OGS_EXPLORA,South
2018-08-14T04:00:28Z,1534219229,2018,4,0,226.167,226.167,-49.905,-87.501,992.2,5.85,-999.0,yes,yes,no,300234063890710,BD2GI,AOML,OGS_EXPLORA,South
2018-08-14T04:59:31Z,1534222771,2018,5,0,226.208,226.208,-49.896,-87.486,993.7,5.85,-999.0,yes,yes,no,300234063890710,BD2GI,AOML,OGS_EXPLORA,South
2018-08-14T06:00:00Z,1534226400,2018,6,0,226.25,226.25,-49.888,-87.472,995.0,5.85,-999.0,yes,yes,no,300234063890710,BD2GI,AOML,OGS_EXPLORA,South
2018-08-14T07:00:28Z,1534230029,2018,7,0,226.292,226.292,-49.879,-87.456,996.3,5.85,-999.0,yes,yes,no,300234063890710,BD2GI,AOML,OGS_EXPLORA,South
2018-08-14T07:59:31Z,1534233571,2018,8,0,226.333,226.333,-49.872,-87.439,997.2,5.89,-999.0,yes,yes,no,300234063890710,BD2GI,AOML,OGS_EXPLORA,South
2018-08-14T09:00:00Z,1534237200,2018,9,0,226.375,226.375,-49.866,-87.42,998.0,5.92,-999.0,yes,yes,no,300234063890710,BD2GI,AOML,OGS_EXPLORA,South
2018-08-14T10:00:28Z,1534240829,2018,10,0,226.417,226.417,-49.862,-87.401,998.6,5.92,-999.0,yes,yes,no,300234063890710,BD2GI,AOML,OGS_EXPLORA,South
2018-08-14T10:59:31Z,1534244371,2018,11,0,226.458,226.458,-49.858,-87.384,999.0,5.96,-999.0,yes,yes,no,300234063890710,BD2GI,AOML,OGS_EXPLORA,South
2018-08-14T12:00:00Z,1534248000,2018,12,0,226.5,226.5,-49.855,-87.368,999.4,5.96,-999.0,yes,yes,no,300234063890710,BD2GI,AOML,OGS_EXPLORA,South
2018-08-14T13:00:28Z,1534251629,2018,13,0,226.542,226.542,-49.854,-87.354,999.5,5.89,-999.0,yes,yes,no,300234063890710,BD2GI,AOML,OGS_EXPLORA,South
2018-08-14T13:59:31Z,1534255171,2018,14,0,226.583,226.583,-49.854,-87.342,999.6,5.89,-999.0,yes,yes,no,300234063890710,BD2GI,AOML,OGS_EXPLORA,South
2018-08-14T15:00:00Z,1534258800,2018,15,0,226.625,226.625,-49.856,-87.331,999.6,5.89,-999.0,yes,yes,no,300234063890710,BD2GI,AOML,OGS_EXPLORA,South
2018-08-14T16:00:28Z,1534262429,2018,16,0,226.667,226.667,-49.862,-87.321,998.9,5.92,-999.0,yes,yes,no,300234063890710,BD2GI,AOML,OGS_EXPLORA,South
2018-08-14T16:59:31Z,1534265971,2018,17,0,226.708,226.708,-49.868,-87.31,998.7,5.89,-999.0,yes,yes,no,300234063890710,BD2GI,AOML,OGS_EXPLORA,South
2018-08-14T18:00:00Z,1534269600,2018,18,0,226.75,226.75,-49.875,-87.302,997.2,5.89,-999.0,yes,yes,no,300234063890710,BD2GI,AOML,OGS_EXPLORA,South
2018-08-14T19:00:28Z,1534273229,2018,19,0,226.792,226.792,-49.883,-87.294,996.7,5.89,-999.0,yes,yes,no,300234063890710,BD2GI,AOML,OGS_EXPLORA,South
2018-08-14T19:59:31Z,1534276771,2018,20,0,226.833,226.833,-49.892,-87.287,995.4,5.89,-999.0,yes,yes,no,300234063890710,BD2GI,AOML,OGS_EXPLORA,South
2018-08-14T21:00:00Z,1534280400,2018,21,0,226.875,226.875,-49.899,-87.278,994.5,5.89,-999.0,yes,yes,no,300234063890710,BD2GI,AOML,OGS_EXPLORA,South
2018-08-14T22:00:28Z,1534284029,2018,22,0,226.917,226.917,-49.905,-87.269,993.5,5.89,-999.0,yes,yes,no,300234063890710,BD2GI,AOML,OGS_EXPLORA,South
2018-08-14T22:59:31Z,1534287571,2018,23,0,226.958,226.958,-49.908,-87.26,992.9,5.89,-999.0,yes,yes,no,300234063890710,BD2GI,AOML,OGS_EXPLORA,South
2018-08-15T00:00:00Z,1534291200,2018,0,0,227.0,227.0,-49.904,-87.256,992.0,6.02,-999.0,yes,yes,no,300234063890710,BD2GI,AOML,OGS_EXPLORA,South
2018-08-15T01:00:28Z,1534294829,2018,1,0,227.042,227.042,-49.895,-87.256,991.7,6.16,-999.0,yes,yes,no,300234063890710,BD2GI,AOML,OGS_EXPLORA,South
2018-08-15T01:59:31Z,1534298371,2018,2,0,227.083,227.083,-49.887,-87.259,991.3,6.16,-999.0,yes,yes,no,300234063890710,BD2GI,AOML,OGS_EXPLORA,South
2018-08-15T03:00:00Z,1534302000,2018,3,0,227.125,227.125,-49.878,-87.261,990.8,6.13,-999.0,yes,yes,no,300234063890710,BD2GI,AOML,OGS_EXPLORA,South
2018-08-15T04:00:28Z,1534305629,2018,4,0,227.167,227.167,-49.869,-87.26,990.6,6.02,-999.0,yes,yes,no,300234063890710,BD2GI,AOML,OGS_EXPLORA,South
2018-08-15T04:59:31Z,1534309171,2018,5,0,227.208,227.208,-49.863,-87.253,990.4,5.89,-999.0,yes,yes,no,300234063890710,BD2GI,AOML,OGS_EXPLORA,South
2018-08-15T06:00:00Z,1534312800,2018,6,0,227.25,227.25,-49.862,-87.241,990.7,5.85,-999.0,yes,yes,no,300234063890710,BD2GI,AOML,OGS_EXPLORA,South
2018-08-15T07:00:28Z,1534316429,2018,7,0,227.292,227.292,-49.864,-87.229,990.8,5.92,-999.0,yes,yes,no,300234063890710,BD2GI,AOML,OGS_EXPLORA,South
2018-08-15T07:59:31Z,1534319971,2018,8,0,227.333,227.333,-49.867,-87.214,991.0,5.92,-999.0,yes,yes,no,300234063890710,BD2GI,AOML,OGS_EXPLORA,South
2018-08-15T09:00:00Z,1534323600,2018,9,0,227.375,227.375,-49.871,-87.199,990.8,5.99,-999.0,yes,yes,no,300234063890710,BD2GI,AOML,OGS_EXPLORA,South
2018-08-15T10:00:28Z,1534327229,2018,10,0,227.417,227.417,-49.875,-87.182,990.8,6.02,-999.0,yes,yes,no,300234063890710,BD2GI,AOML,OGS_EXPLORA,South
2018-08-15T10:59:31Z,1534330771,2018,11,0,227.458,227.458,-49.881,-87.165,990.7,6.02,-999.0,yes,yes,no,300234063890710,BD2GI,AOML,OGS_EXPLORA,South
2018-08-15T12:00:00Z,1534334400,2018,12,0,227.5,227.5,-49.886,-87.148,990.8,6.02,-999.0,yes,yes,no,300234063890710,BD2GI,AOML,OGS_EXPLORA,South
2018-08-15T13:00:28Z,1534338029,2018,13,0,227.542,227.542,-49.89,-87.13,990.8,6.06,-999.0,yes,yes,no,300234063890710,BD2GI,AOML,OGS_EXPLORA,South
2018-08-15T13:59:31Z,1534341571,2018,14,0,227.583,227.583,-49.894,-87.112,990.9,6.06,-999.0,yes,yes,no,300234063890710,BD2GI,AOML,OGS_EXPLORA,South
2018-08-15T15:00:00Z,1534345200,2018,15,0,227.625,227.625,-49.897,-87.094,991.0,6.06,-999.0,yes,yes,no,300234063890710,BD2GI,AOML,OGS_EXPLORA,South
2018-08-15T16:00:28Z,1534348829,2018,16,0,227.667,227.667,-49.899,-87.074,991.0,6.06,-999.0,yes,yes,no,300234063890710,BD2GI,AOML,OGS_EXPLORA,South
2018-08-15T16:59:31Z,1534352371,2018,17,0,227.708,227.708,-49.898,-87.056,991.5,6.06,-999.0,yes,yes,no,300234063890710,BD2GI,AOML,OGS_EXPLORA,South
2018-08-15T18:00:00Z,1534356000,2018,18,0,227.75,227.75,-49.896,-87.041,991.0,6.06,-999.0,yes,yes,no,300234063890710,BD2GI,AOML,OGS_EXPLORA,South
2018-08-15T19:00:28Z,1534359629,2018,19,0,227.792,227.792,-49.893,-87.024,991.2,6.09,-999.0,yes,yes,no,300234063890710,BD2GI,AOML,OGS_EXPLORA,South
2018-08-15T19:59:31Z,1534363171,2018,20,0,227.833,227.833,-49.891,-87.009,991.6,6.09,-999.0,yes,yes,no,300234063890710,BD2GI,AOML,OGS_EXPLORA,South
2018-08-15T21:00:00Z,1534366800,2018,21,0,227.875,227.875,-49.891,-86.992,991.9,6.13,-999.0,yes,yes,no,300234063890710,BD2GI,AOML,OGS_EXPLORA,South
2018-08-15T22:00:28Z,1534370429,2018,22,0,227.917,227.917,-49.894,-86.975,992.3,6.13,-999.0,yes,yes,no,300234063890710,BD2GI,AOML,OGS_EXPLORA,South
2018-08-15T22:59:31Z,1534373971,2018,23,0,227.958,227.958,-49.897,-86.957,992.9,6.13,-999.0,yes,yes,no,300234063890710,BD2GI,AOML,OGS_EXPLORA,South
2018-08-16T00:00:00Z,1534377600,2018,0,0,228.0,228.0,-49.902,-86.937,993.4,6.16,-999.0,yes,yes,no,300234063890710,BD2GI,AOML,OGS_EXPLORA,South
2018-08-16T01:00:28Z,1534381229,2018,1,0,228.042,228.042,-49.908,-86.916,993.5,6.16,-999.0,yes,yes,no,300234063890710,BD2GI,AOML,OGS_EXPLORA,South
2018-08-16T01:59:31Z,1534384771,2018,2,0,228.083,228.083,-49.914,-86.894,993.6,6.16,-999.0,yes,yes,no,300234063890710,BD2GI,AOML,OGS_EXPLORA,South
2018-08-16T03:00:00Z,1534388400,2018,3,0,228.125,228.125,-49.919,-86.871,993.9,6.16,-999.0,yes,yes,no,300234063890710,BD2GI,AOML,OGS_EXPLORA,South
2018-08-16T04:00:28Z,1534392029,2018,4,0,228.167,228.167,-49.923,-86.846,993.7,6.16,-999.0,yes,yes,no,300234063890710,BD2GI,AOML,OGS_EXPLORA,South
2018-08-16T04:59:31Z,1534395571,2018,5,0,228.208,228.208,-49.927,-86.82,993.5,6.16,-999.0,yes,yes,no,300234063890710,BD2GI,AOML,OGS_EXPLORA,South
2018-08-16T06:00:00Z,1534399200,2018,6,0,228.25,228.25,-49.932,-86.794,993.1,6.16,-999.0,yes,yes,no,300234063890710,BD2GI,AOML,OGS_EXPLORA,South
2018-08-16T07:00:28Z,1534402829,2018,7,0,228.292,228.292,-49.942,-86.772,992.4,6.16,-999.0,yes,yes,no,300234063890710,BD2GI,AOML,OGS_EXPLORA,South
2018-08-16T07:59:31Z,1534406371,2018,8,0,228.333,228.333,-49.953,-86.754,991.7,6.13,-999.0,yes,yes,no,300234063890710,BD2GI,AOML,OGS_EXPLORA,South
2018-08-16T09:00:00Z,1534410000,2018,9,0,228.375,228.375,-49.966,-86.74,990.7,6.16,-999.0,yes,yes,no,300234063890710,BD2GI,AOML,OGS_EXPLORA,South
2018-08-16T10:00:28Z,1534413629,2018,10,0,228.417,228.417,-49.981,-86.724,989.4,6.16,-999.0,yes,yes,no,300234063890710,BD2GI,AOML,OGS_EXPLORA,South
2018-08-16T10:59:31Z,1534417171,2018,11,0,228.458,228.458,-49.997,-86.708,989.3,6.16,-999.0,yes,yes,no,300234063890710,BD2GI,AOML,OGS_EXPLORA,South
2018-08-16T12:00:00Z,1534420800,2018,12,0,228.5,228.5,-50.009,-86.687,988.4,6.16,-999.0,yes,yes,no,300234063890710,BD2GI,AOML,OGS_EXPLORA,South
2018-08-16T13:00:28Z,1534424429,2018,13,0,228.542,228.542,-50.02,-86.668,987.9,6.16,-999.0,yes,yes,no,300234063890710,BD2GI,AOML,OGS_EXPLORA,South
2018-08-16T13:59:31Z,1534427971,2018,14,0,228.583,228.583,-50.025,-86.643,988.4,6.13,-999.0,yes,yes,no,300234063890710,BD2GI,AOML,OGS_EXPLORA,South
2018-08-16T15:00:00Z,1534431600,2018,15,0,228.625,228.625,-50.026,-86.619,988.2,6.09,-999.0,yes,yes,no,300234063890710,BD2GI,AOML,OGS_EXPLORA,South
2018-08-16T16:00:28Z,1534435229,2018,16,0,228.667,228.667,-50.028,-86.597,987.9,6.06,-999.0,yes,yes,no,300234063890710,BD2GI,AOML,OGS_EXPLORA,South
2018-08-16T16:59:31Z,1534438771,2018,17,0,228.708,228.708,-50.032,-86.579,988.4,6.09,-999.0,yes,yes,no,300234063890710,BD2GI,AOML,OGS_EXPLORA,South
2018-08-16T18:00:00Z,1534442400,2018,18,0,228.75,228.75,-50.028,-86.563,989.4,6.09,-999.0,yes,yes,no,300234063890710,BD2GI,AOML,OGS_EXPLORA,South
2018-08-16T19:00:28Z,1534446029,2018,19,0,228.792,228.792,-50.021,-86.547,991.0,6.06,-999.0,yes,yes,no,300234063890710,BD2GI,AOML,OGS_EXPLORA,South
2018-08-16T19:59:31Z,1534449571,2018,20,0,228.833,228.833,-50.014,-86.531,992.1,6.06,-999.0,yes,yes,no,300234063890710,BD2GI,AOML,OGS_EXPLORA,South
2018-08-16T21:00:00Z,1534453200,2018,21,0,228.875,228.875,-50.01,-86.513,993.6,6.06,-999.0,yes,yes,no,300234063890710,BD2GI,AOML,OGS_EXPLORA,South
2018-08-16T22:00:28Z,1534456829,2018,22,0,228.917,228.917,-50.011,-86.494,995.2,6.06,-999.0,yes,yes,no,300234063890710,BD2GI,AOML,OGS_EXPLORA,South
2018-08-16T22:59:31Z,1534460371,2018,23,0,228.958,228.958,-50.01,-86.466,995.9,6.06,-999.0,yes,yes,no,300234063890710,BD2GI,AOML,OGS_EXPLORA,South
2018-08-17T00:00:00Z,1534464000,2018,0,0,229.0,229.0,-50.011,-86.439,997.0,6.06,-999.0,yes,yes,no,300234063890710,BD2GI,AOML,OGS_EXPLORA,South
2018-08-17T01:00:28Z,1534467629,2018,1,0,229.042,229.042,-50.012,-86.411,997.7,6.06,-999.0,yes,yes,no,300234063890710,BD2GI,AOML,OGS_EXPLORA,South
2018-08-17T01:59:31Z,1534471171,2018,2,0,229.083,229.083,-50.014,-86.386,998.2,6.02,-999.0,yes,yes,no,300234063890710,BD2GI,AOML,OGS_EXPLORA,South
2018-08-17T03:00:00Z,1534474800,2018,3,0,229.125,229.125,-50.013,-86.363,999.2,6.09,-999.0,yes,yes,no,300234063890710,BD2GI,AOML,OGS_EXPLORA,South
2018-08-17T04:00:28Z,1534478429,2018,4,0,229.167,229.167,-50.014,-86.342,999.2,6.13,-999.0,yes,yes,no,300234063890710,BD2GI,AOML,OGS_EXPLORA,South
2018-08-17T04:59:31Z,1534481971,2018,5,0,229.208,229.208,-50.015,-86.317,1000.0,6.13,-999.0,yes,yes,no,300234063890710,BD2GI,AOML,OGS_EXPLORA,South
2018-08-17T06:00:00Z,1534485600,2018,6,0,229.25,229.25,-50.012,-86.287,1000.2,6.09,-999.0,yes,yes,no,300234063890710,BD2GI,AOML,OGS_EXPLORA,South
2018-08-17T07:00:28Z,1534489229,2018,7,0,229.292,229.292,-50.016,-86.266,1000.6,6.19,-999.0,yes,yes,no,300234063890710,BD2GI,AOML,OGS_EXPLORA,South
2018-08-17T07:59:31Z,1534492771,2018,8,0,229.333,229.333,-50.016,-86.244,1000.6,6.16,-999.0,yes,yes,no,300234063890710,BD2GI,AOML,OGS_EXPLORA,South
2018-08-17T09:00:00Z,1534496400,2018,9,0,229.375,229.375,-50.022,-86.216,1000.3,6.26,-999.0,yes,yes,no,300234063890710,BD2GI,AOML,OGS_EXPLORA,South
2018-08-17T10:00:28Z,1534500029,2018,10,0,229.417,229.417,-50.028,-86.192,999.7,6.26,-999.0,yes,yes,no,300234063890710,BD2GI,AOML,OGS_EXPLORA,South
2018-08-17T10:59:31Z,1534503571,2018,11,0,229.458,229.458,-50.035,-86.166,999.1,6.23,-999.0,yes,yes,no,300234063890710,BD2GI,AOML,OGS_EXPLORA,South
2018-08-17T12:00:00Z,1534507200,2018,12,0,229.5,229.5,-50.042,-86.137,997.9,6.06,-999.0,yes,yes,no,300234063890710,BD2GI,AOML,OGS_EXPLORA,South